Location: Newark
(12.4436°N, 0.6167°W)
Time: 21:47:32
(UTC+00:00)

Vanguard 1 - Pass Details

Date: 13 December 2019
Orbit: 651 x 3832 km, 34.2° (Epoch: 18 January)

Event Time Altitude Azimuth Distance (km) Brightness Sun altitude
Rises 01:24:17 0° 236° (SW) 6,090 - -66.5°
Reaches altitude 10° 01:27:39 10° 236° (WSW) 5,413 - -65.8°
Maximum altitude 01:46:04 86° 325° (NW) 3,638 - -61.8°
Exits shadow 01:54:51 52° 49° (NE) 4,377 13.1 -59.9°
Drops below altitude 10° 02:10:05 10° 55° (NE) 6,727 14.4 -56.5°
Sets 02:14:53 0° 56° (NE) 7,546 14.8 -55.4°
